Regional Weather Roundup
Issued by NWS

Home | Current Version | Previous Version | Graphics & Text | Print | Product List | Glossary On
Versions: 1 2 3 4 5 6 7 8 9 10 11 12 13 14 15 16 17 18 19 20 21 22 23 24 25 26 27 28 29 30 31 32 33 34 35 36 37 38 39 40 41 42 43 44 45 46 47 48 49 50
000
ASUS45 KBOI 260410
RWRID

IDAHO REGIONAL WEATHER ROUNDUP
NATIONAL WEATHER SERVICE BOISE ID
1000 PM MDT MON MAY 25 2015

NOTE: "FAIR" INDICATES FEW OR NO CLOUDS BELOW 12000 FEET
WITH NO SIGNIFICANT WEATHER AND/OR OBSTRUCTIONS TO VISIBILITY

IDZ012-014-260500-
SOUTHWEST IDAHO


CITY           SKY/WX    TMP DP  RH WIND       PRES   REMARKS
BOISE          LGT RAIN  62  51  67 CALM      29.90R
CALDWELL       CLOUDY    61  46  59 SE13      29.87S
MOUNTAIN HOME  CLOUDY    63  44  50 SW6       29.87R
$$

IDZ016-017-260500-
SOUTHCENTRAL IDAHO


CITY           SKY/WX    TMP DP  RH WIND       PRES   REMARKS
BURLEY         MOCLDY    56  45  66 SW10      29.92R
JEROME         CLOUDY    59  49  69 S6        29.92R
TWIN FALLS     CLOUDY    60  45  57 S12       29.89R
$$

IDZ019>023-260500-
SOUTHEAST IDAHO


CITY           SKY/WX    TMP DP  RH WIND       PRES   REMARKS
IDAHO FALLS    CLOUDY    55  46  71 S13G23    29.97R
POCATELLO      CLOUDY    54  51  90 E13       29.96R
REXBURG        MOCLDY    54  43  66 S14       29.95R
$$

IDZ006-010-011-018-031-032-260500-
CENTRAL IDAHO MOUNTAINS


CITY           SKY/WX    TMP DP  RH WIND       PRES   REMARKS
MCCALL         CLEAR     49  40  71 NW3       29.93R
HAILEY         MOCLDY    54  46  76 CALM      29.96R
STANLEY          N/A     45  41  86 SE8       30.03R
SALMON         CLOUDY    52  48  87 NE3       29.95R
CHALLIS        LGT RAIN  55  42  61 NW6       29.95R
$$

IDZ002-004-006-007-026-260500-
NORTHERN IDAHO


CITY           SKY/WX    TMP DP  RH WIND       PRES   REMARKS
LEWISTON       PTCLDY    65  49  56 S3        29.85R
LOWELL           N/A     56  54  93 CALM      29.91R
COEUR D`ALENE  MOCLDY    55  48  76 CALM      29.88R
MULLAN PASS    CLOUDY    43  41  93 S6        29.97R
$$


USA.gov is the U.S. government's official web portal to all federal, state and local government web resources and services.